Location: B�hl
(48.6968°N, 8.1352°E)
Time: 19:48:20
(UTC+00:00)

Spot 2 Rocket - Pass Details

Date: 08 March 2021
Orbit: 757 x 772 km, 98.5° (Epoch: 14 April)

Event Time Altitude Azimuth Distance (km) Brightness Sun altitude
Exits shadow 20:14:34 39° 17° (NNE) 1,151 4.4 -28.3°
Drops below altitude 10° 20:18:00 10° 353° (N) 2,329 6.4 -28.8°
Sets 20:20:21 0° 350° (N) 3,261 7.3 -29.2°
